www.pogodaiklimat.ru
ПОГОДА в Мадрид аэропорту
Время
(UTC), дата
04 12.11
05 12.11
06 12.11
07 12.11
08 12.11
09 12.11
10 12.11
11 12.11
12 12.11
13 12.11
14 12.11
15 12.11
16 12.11
17 12.11
18 12.11
19 12.11
20 12.11
21 12.11
22 12.11
23 12.11
00 13.11
01 13.11
02 13.11
03 13.11
04 13.11
05 13.11
06 13.11
07 13.11
08 13.11
09 13.11
10 13.11
11 13.11
12 13.11
13 13.11
14 13.11
15 13.11
16 13.11
17 13.11
18 13.11
19 13.11
21 13.11
00 14.11
01 14.11
02 14.11
03 14.11
04 14.11
05 14.11
06 14.11
07 14.11
08 14.11
09 14.11
10 14.11
11 14.11
12 14.11
13 14.11
14 14.11
15 14.11
16 14.11
17 14.11
18 14.11
19 14.11
20 14.11
21 14.11
22 14.11
23 14.11
00 15.11
01 15.11
02 15.11
03 15.11
04 15.11
05 15.11
06 15.11
07 15.11
08 15.11
09 15.11
10 15.11
11 15.11
12 15.11
13 15.11
14 15.11
15 15.11
16 15.11
17 15.11
18 15.11
19 15.11
20 15.11
21 15.11
22 15.11
23 15.11
00 16.11
01 16.11
02 16.11
03 16.11
04 16.11
05 16.11
06 16.11
07 16.11
08 16.11
09 16.11
10 16.11
11 16.11
12 16.11
13 16.11
14 16.11
15 16.11
16 16.11
17 16.11
18 16.11
19 16.11
20 16.11
21 16.11
22 16.11
23 16.11
00 17.11
01 17.11
02 17.11
03 17.11
04 17.11
05 17.11
06 17.11
07 17.11
08 17.11
09 17.11
10 17.11
11 17.11
12 17.11
13 17.11
14 17.11
15 17.11
16 17.11
17 17.11
18 17.11
19 17.11
20 17.11
21 17.11
22 17.11
23 17.11
00 18.11
01 18.11
02 18.11
03 18.11
04 18.11
05 18.11
06 18.11
07 18.11
08 18.11
09 18.11
10 18.11
11 18.11
12 18.11
13 18.11
14 18.11
15 18.11
16 18.11
17 18.11
18 18.11
19 18.11
20 18.11
21 18.11
22 18.11
23 18.11
00 19.11
01 19.11
02 19.11
Ветер
(напр.,м/с)
Видим. Явления Облачность Т
(С)
Тd
(С)
f
(%)
Тe
(С)
Тes
(С)
Комфортность P
(гПа)
Po
(гПа)
Тmin
(С)
Tmax
(С)
R
(мм)
R24
(мм)
S
(см)
ЮВ 2 30 км 5/0
[Ac und Cs]
+5.2 +1.3 76 +3 +3 тепло 1017.8 948.3
Ю 1 30 км 8/0
[Ac und Cs]
+4.9 +1.2 77 +4 +4 тепло 1018.0 948.5
В 1 30 км 6/0
[Ac As Cs]
+4.2 +1.1 80 +3 +3 по сезону 1017.9 948.2 +4.2
В 2 30 км 5/3 1000 м
[Sc Ac und]
+3.5 +1.0 84 +1 +1 по сезону 1018.2 948.3
С 1 30 км 6/0
[Ac und]
+4.4 +2.3 86 +3 +3 тепло 1019.0 949.3
З 1 30 км 8/0
[Ac und]
+6.6 +2.0 72 +6 +7 по сезону 1018.6 949.4
С 1 30 км 4/0
[Ac und]
+9.8 +2.1 59 +11 +14 тепло 1017.4 949.1
Ю 1 30 км 3/1 600 м
[Cu hum Ac und Ci fib]
+12.3 +2.0 49 +13 +17 тепло 1015.9 948.3
З 2 21 км 4/1 1000 м
[Cu hum Ac und Ci fib]
+12.8 +0.9 44 +12 +17 по сезону 1015.4 947.8
СЗ 3 30 км 3/1 1000 м
[Cu hum Ac und Ci fib]
+13.9 +0.8 41 +13 +17 по сезону 1014.2 946.9
ЮЗ 2 29 км 5/1 1000 м
[Cu hum Ac und Ci fib]
+13.6 +0.2 40 +13 +16 тепло 1013.3 946.0
З 5 30 км 6/1 1000 м
[Cu hum Ac und Ci fib]
+12.6 +0.4 43 +11 +12 по сезону 1013.0 945.5
З 5 30 км 6/1 1500 м
[Cu hum Ac und Ci fib]
+12.4 +0.8 45 +11 +11 по сезону 1012.7 945.2
З 3 30 км 6/1 1500 м
[Cu hum Ac und Ci fib]
+12.2 +0.9 46 +11 +11 по сезону 1011.9 944.4
ЮЗ 5 30 км 6/1 1500 м
[Cu hum Ac und Ci fib]
+12.2 +3.4 55 +10 +10 по сезону 1012.1 944.6 +14.3
ЮЗ 6 30 км 9/4 1500 м
[Cu hum Ac und Cs]
+12.0 +4.5 60 +9 +9 по сезону 1011.8 944.3
ЮЗ 6 30 км 9/4 1000 м
[Cu Sc Ac und Cs]
+11.9 +5.4 64 +9 +9 по сезону 1011.5 944.0
ЮЗ 7 30 км 10/3 1500 м
[Sc Ac As]
+10.7 +5.7 71 +7 +7 по сезону 1011.1 943.5
ЮЗ 5 20 км слаб. морось {дождь} 10/8 1000 м
[Sc Ac As]
+10.2 +6.4 77 +7 +7 по сезону 1010.8 943.1
Ю 6 15 км слаб. морось {дождь} 10/5 1500 м
[Cu Sc Ac As]
+9.9 +7.0 82 +7 +7 по сезону 1009.4 941.7
ЮЗ 6 25 км {дождь, морось} 9/8 1000 м
[Cu Sc Ac As Ci sp]
+10.1 +7.2 82 +7 +7 по сезону 1008.2 940.7 0.4
ЮЗ 8 19 км слаб. морось 10/5 300 м
[Sc Ac As]
+10.6 +8.5 87 +7 +7 по сезону 1007.0 939.6
ЮЗ 10 10 км слаб. дождь {морось} 10/6 300 м
[Cu Sc Ac As]
+10.6 +9.1 90 +6 +6 тепло 1005.9 938.6
ЮЗ 8 18 км {морось} 9/8 200 м
[Cu Sc Ac As]
+10.9 +9.2 89 +7 +7 по сезону 1005.6 938.4 1
ЮЗ 6 25 км 9/8 300 м
[Cu Sc Ac As]
+11.2 +9.5 89 +8 +8 тепло 1005.1 938.0
ЮЗ 8 18 км 6/6 300 м
[Cu Sc Ac As]
+11.2 +9.5 89 +7 +7 тепло 1005.1 938.0
ЮЗ 9 22 км слаб. дождь 10/3 1500 м
[Cu Sc Ac As]
+11.2 +9.8 91 +7 +7 тепло 1005.3 938.2 +9.9 0.3
ЮЗ 9 11 км слаб. морось {дождь} 8/3 300 м
[Frnb Ac As Ci fib]
+11.4 +10.0 91 +8 +8 тепло 1005.5 938.4
З 8 30 км 8/6 1000 м
[Cu Sc Ac As Ci fib]
+12.0 +10.3 89 +9 +9 тепло 1006.6 939.6
С 6 30 км 8/8 600 м
[Cu Sc Ac As Ci fib]
+12.7 +8.4 75 +10 +10 по сезону 1009.3 942.2 0.2
С 4 30 км 1/1 1000 м
[Cu Sc]
+14.4 +6.7 60 +13 +15 тепло 1009.8 943.1
С 5 30 км 3/3 1000 м
[Cu Sc Ac cuf Ci fib]
+15.1 +5.9 54 +14 +16 тепло 1010.5 943.9
С 2 30 км 4/4 1500 м
[Sc]
+15.9 +4.7 47 +16 +19 тепло 1010.5 944.0
С 3 30 км 1/1 1500 м
[Cu Sc]
+16.3 +3.1 41 +16 +20 тепло 1010.0 943.6
СВ 2 30 км 4/4 1500 м
[Cu Sc]
+17.1 +3.8 41 +18 +20 тепло 1010.0 943.8
З 1 30 км 5/5 1500 м
[Sc]
+17.3 +3.6 40 +19 +20 тепло 1009.9 943.8
З 5 30 км 4/4 1500 м
[Sc Ci fib]
+16.1 +3.4 43 +15 +15 тепло 1010.3 943.9
З 5 30 км 5/1 1500 м
[Cu Sc Ac lent Ci]
+14.4 +4.1 50 +13 +13 тепло 1011.0 944.1
ЮЗ 1 30 км 6/6 1500 м
[Cu Sc Ac lent Ci]
+14.3 +4.5 52 +15 +15 тепло 1011.4 944.5 +17.4
З 2 30 км 9/3 1500 м
[Cu Sc Ac As Cs]
+12.9 +5.1 59 +13 +13 тепло 1010.9 943.7
ЮЗ 4 30 км 10/0
[Ac trans Cs]
+12.0 +5.4 64 +10 +10 по сезону 1010.2 942.8
ЮВ 3 30 км 5/0
[Cs]
+9.3 +6.2 81 +7 +7 по сезону 1008.6 940.8
ЮЗ 3 30 км 9/0
[Cs]
+9.3 +6.4 82 +7 +7 по сезону 1007.9 940.2
ЮЗ 3 30 км 10/0
[Cs]
+9.4 +5.2 75 +7 +7 тепло 1007.2 939.5
ЮЗ 4 30 км 10/0
[Cs]
+9.2 +4.7 73 +7 +7 по сезону 1006.3 938.6
Ю 5 30 км 3/0
[Ci sp]
+8.6 +5.9 83 +5 +5 по сезону 1004.9 937.2
ЮЗ 6 30 км 6/0
[Ac trans Cs]
+8.2 +4.6 78 +4 +4 тепло 1003.9 936.2
ЮЗ 8 16 км слаб. дождь {морось} 8/4 1000 м
[Frnb Ac As Ci sp]
+7.9 +5.2 83 +3 +3 по сезону 1003.5 935.7 +7.9 0.1 0.3
З 7 30 км 10/9 1000 м
[Frnb Ac As Cs]
+6.8 +3.4 79 +2 +2 по сезону 1004.2 936.1
С 5 7000 м дождь {морось} 10/9 300 м
[Frnb Ac As Cs]
+5.5 +3.2 85 +1 +1 по сезону 1005.6 937.1
З 4 30 км в посл. час дождь {морось} 10/8 300 м
[Frnb Ac As Cs]
+6.4 +2.2 74 +3 +3 прохладно 1004.9 936.6 3
З 9 30 км 9/1 1000 м
[Cu Sc Ac As Ci sp]
+7.3 +0.5 62 +2 +3 прохладно 1004.7 936.6
З 7 30 км 9/3 1000 м
[Cu Sc Ac und Cs]
+8.9 -0.2 53 +5 +6 по сезону 1004.0 936.4
З 5 30 км 8/8 600 м
[Sc diur, vesp]
+9.9 -0.4 49 +7 +8 прохладно 1002.8 935.4
З 8 30 км 8/8 600 м
[Sc diur, vesp]
+10.4 -1.1 45 +7 +7 прохладно 1001.6 934.4
З 9 30 км 8/8 1500 м
[Cu Sc]
+10.1 -2.5 41 +6 +6 прохладно 1000.6 933.4
З 8 30 км 5/5 2000 м
[Cu Sc Ac trans Ci sp]
+10.3 -2.9 39 +7 +7 прохладно 999.4 932.3
З 7 4000 м слаб. ливневой дождь 10/5 600 м
[Cu med, cong Ac As Cs]
+6.0 +2.4 78 +1 +1 очень
холодно
1000.7 932.6
З 7 18 км слаб. дождь 10/5 1000 м
[Cu med, cong Ac As Cs]
+7.4 +1.8 68 +3 +3 холодно 999.8 932.1
ЮЗ 7 30 км в посл. час дождь {морось} 9/1 1000 м
[Cu med, cong Ac As Cs]
+7.6 +1.6 66 +3 +3 холодно 999.6 932.0 +11.4 0.6
СЗ 8 30 км 10/8 600 м
[Cu Sc Ac As Cs]
+7.7 +1.2 63 +3 +3 холодно 1000.7 933.0
СЗ 10 30 км 10/8 1000 м
[Cu Sc Ac As Cs]
+7.1 +0.6 63 +2 +2 холодно 1000.8 933.0
З 6 30 км 6/4 1000 м
[Cu Sc Ac As Ci sp]
+6.6 +0.3 64 +3 +3 холодно 1001.8 933.8
З 4 30 км 5/1 1500 м
[Cu Sc Ac As Ci sp]
+6.3 +0.5 66 +3 +3 прохладно 1002.8 934.6
З 5 30 км 4/3 2000 м
[Cu Sc Ac As Ci fib]
+6.4 +0.4 65 +3 +3 по сезону 1003.6 935.4
З 7 30 км 5/1 1500 м
[Cu Sc Ac As Ci sp]
+6.2 +0.1 65 +1 +1 прохладно 1003.2 935.0
З 4 30 км 4/1 1000 м
[Cu Sc Ac As Ci sp]
+5.6 +0.4 69 +2 +2 по сезону 1003.6 935.2
З 5 30 км 3/1 1000 м
[Cu Sc Ac As Ci sp]
+5.5 +0.1 68 +1 +1 по сезону 1003.4 935.0
ЮЗ 3 30 км 4/3 1000 м
[Cu Sc Ac As Ci sp]
+5.5 -0.4 66 +2 +2 по сезону 1003.4 935.0
ЮВ 2 30 км 4/3 1000 м
[Cu Sc Ac und Ci sp]
+4.1 -0.5 72 +2 +2 по сезону 1004.1 935.3
ЮЗ 4 30 км 4/3
[Cu Sc Ac trans Ci sp]
+4.4 -0.4 71 +1 +1 по сезону 1004.2 935.4
З 5 30 км 6/3 2000 м
[Cu Sc Ac As Ci sp]
+4.9 +0.3 72 +1 +1 по сезону 1004.3 935.7 +3.2 3.2
З 5 30 км 5/1 2000 м
[Cu Sc Ac As Ci sp]
+5.0 +0.2 71 +1 +1 по сезону 1004.7 936.1
СЗ 5 30 км 6/1 2000 м
[Cu Sc Ac As Ci sp]
+5.1 +0.7 73 +1 +1 по сезону 1005.6 936.9
З 5 30 км 8/3 300 м
[St Ac As Ci sp]
+5.8 0.0 66 +2 +2 холодно 1005.8 937.3
З 5 30 км 8/0
[Ac und Ci sp]
+6.5 +0.1 64 +3 +4 прохладно 1006.0 937.6
З 5 30 км 5/1 1500 м
[Cu Sc Ac und Ci sp]
+8.9 +0.7 56 +6 +8 по сезону 1005.4 937.7
З 6 30 км 8/3 600 м
[Sc Ac As Ci sp]
+8.8 -0.2 53 +5 +6 холодно 1004.7 937.0
СЗ 8 30 км 8/1 1500 м
[Cu Sc Ac As Ci sp]
+9.2 -0.5 51 +5 +6 холодно 1004.6 937.0
СЗ 6 30 км 8/1 1500 м
[Cu Sc Ac As Ci sp]
+9.9 -1.2 46 +7 +8 по сезону 1004.3 936.8
СЗ 5 30 км 8/3 1500 м
[Cu Sc Ac As Ci sp]
+9.2 -1.7 46 +6 +7 прохладно 1004.7 937.1
З 5 35 км 8/1 1500 м
[Cu Sc Ac As Ci fib]
+9.0 -1.5 48 +6 +6 прохладно 1005.1 937.4
З 4 30 км 6/1 2000 м
[Cu Sc Ac As Ci fib]
+8.1 -1.5 51 +5 +5 прохладно 1005.6 937.6
З 3 30 км 8/3 2000 м
[Cu Sc Ac As Ci fib]
+7.9 -1.2 53 +6 +6 прохладно 1005.9 937.9 +10.0
З 4 30 км 6/4 2000 м
[Cu Sc Ac As Ci fib]
+7.7 -1.3 53 +5 +5 прохладно 1006.3 938.2
З 5 30 км 9/8 2000 м
[Cu Sc Ac As Ci fib]
+7.9 -1.0 53 +5 +5 прохладно 1006.7 938.6
З 7 30 км 9/8 2000 м
[Cu Sc Ac As Ci fib]
+7.4 -0.4 58 +3 +3 прохладно 1007.6 939.3
З 6 30 км 9/8 2000 м
[Cu Sc Ac As Ci fib]
+6.8 -0.6 59 +3 +3 прохладно 1008.4 939.9
СЗ 5 30 км 9/4 1500 м
[Cu Sc Ac As]
+6.2 -0.6 62 +2 +2 по сезону 1009.0 940.3
С 2 30 км 9/3 1500 м
[Cu Sc Cs]
+5.1 -0.7 66 +3 +3 по сезону 1009.7 940.7
СЗ 1 30 км 9/3 1500 м
[Cu hum Cs]
+3.1 -0.9 75 +3 +3 по сезону 1010.4 940.9
В 2 30 км 9/3 1500 м
[Cu Sc Cs]
+2.8 -0.8 77 -0 -0 по сезону 1010.9 941.3
В 1 30 км 9/3 1500 м
[Cu Sc Cs]
+1.5 -1.6 80 -0 -0 прохладно 1012.1 942.1
С 3 30 км ясно +2.0 -1.4 78 -2 -2 прохладно 1012.5 942.6
СЗ 3 30 км ясно +1.6 -1.5 80 -2 -2 по сезону 1013.2 943.2
СЗ 3 30 км ясно +0.7 -2.0 82 -3 -3 холодно 1014.6 944.2 +0.7
СВ 1 30 км ясно +0.9 -1.8 82 -1 -1 по сезону 1015.4 945.0
СВ 1 30 км ясно +1.4 -1.1 83 +1 +1 по сезону 1015.9 945.6
В 1 30 км ясно +5.3 -0.1 68 +4 +6 по сезону 1015.6 946.2
ЮВ 2 30 км 1/0
[Ci sp]
+7.4 -0.1 59 +6 +9 по сезону 1015.5 946.7
ЮВ 3 30 км 1/0
[Ci sp]
+8.4 -0.3 54 +6 +10 тепло 1015.3 946.7
ЮВ 3 30 км 3/1
[Cu hum Ac trans Ci sp]
+9.9 -0.5 48 +8 +12 по сезону 1014.6 946.4
ЮВ 3 30 км 5/3 2000 м
[Sc Ac trans Ci sp]
+10.9 -0.8 44 +10 +12 по сезону 1013.8 945.9
З 5 30 км 5/4
[Sc Ac trans Ci sp]
+11.6 -3.8 34 +10 +11 по сезону 1013.6 945.9
С 3 30 км 4/1 2000 м
[Sc Ac trans Ci sp]
+11.1 -1.8 41 +10 +11 по сезону 1014.1 946.3
З 6 30 км 4/1 2000 м
[Sc Ac trans Ci sp]
+9.7 -3.0 41 +7 +7 по сезону 1015.1 946.8
З 4 30 км 9/0
[Ac trans Ci sp]
+8.9 -2.0 46 +6 +6 по сезону 1015.4 946.9
З 4 30 км 9/0 2000 м
[Ac trans Cs]
+8.3 -1.5 50 +6 +6 прохладно 1015.8 947.2 +11.7
З 6 30 км 8/0
[Ac trans Cs]
+7.9 -1.9 50 +4 +4 прохладно 1016.4 947.6
З 6 30 км 1/0
[Ac trans Ci sp]
+7.2 -1.4 54 +3 +3 прохладно 1016.7 947.7
З 8 30 км 3/0
[Ci fib]
+6.7 -0.8 59 +2 +2 прохладно 1016.8 947.7
З 5 30 км 4/0
[Ci fib]
+6.5 -2.2 54 +3 +3 по сезону 1017.2 948.0
З 3 30 км 1/0
[Ci fib]
+6.0 -2.1 56 +3 +3 по сезону 1017.3 948.0
З 3 30 км 1/0
[Ci fib]
+5.1 -2.5 58 +2 +2 по сезону 1017.6 948.1
З 2 30 км 4/0
[Ac trans Ci fib]
+3.8 -2.2 65 +1 +1 по сезону 1017.2 947.4
ЮВ 2 30 км 5/0
[Ac trans Ci sp]
+3.4 -2.2 67 +1 +1 по сезону 1017.3 947.4
В 2 30 км 8/0
[Ac trans Ci sp]
+1.8 -2.0 76 -1 -1 прохладно 1017.8 947.5
В 2 30 км 8/0
[Ac trans Ci sp]
+1.3 -1.9 79 -2 -2 по сезону 1017.6 947.2
ЮВ 2 30 км 8/3 1000 м
[Cu Sc Ac trans Ci sp]
+0.8 -2.1 81 -2 -2 по сезону 1017.6 947.0
ЮВ 2 30 км 8/1 1500 м
[Cu Sc Ac trans Ci sp]
+0.9 -1.7 83 -3 -3 прохладно 1017.5 947.0 +0.5
ЮВ 3 30 км 8/3 1500 м
[Sc Ac trans Ci sp]
+1.7 -1.2 81 -3 -3 по сезону 1017.0 946.7
ЮВ 3 30 км 8/5 1000 м
[Sc Ac trans Ci sp]
+3.4 -0.2 77 -0 -0 по сезону 1016.7 946.9
ЮВ 3 30 км 9/8 1000 м
[Sc Ac As Ci sp]
+4.3 +0.7 77 +1 +1 прохладно 1016.5 946.9
Ю 4 20 км 9/8 1000 м
[Sc Ac As Ci sp]
+5.6 +2.3 79 +2 +2 по сезону 1016.1 946.8
Ю 4 30 км 10/5 1000 м
[Cu Sc Ac trans Ci sp]
+6.5 +1.4 70 +3 +4 по сезону 1015.5 946.5
ЮЗ 6 30 км 10/8 600 м
[Sc Ac As Ci sp]
+8.3 +2.9 69 +4 +5 прохладно 1013.7 945.3
ЮЗ 7 30 км 10/8 600 м
[Sc Ac As Ci sp]
+8.6 +4.2 74 +5 +5 по сезону 1012.8 944.5
ЮЗ 5 10 км слаб. морось 10/8 300 м
[Frnb Ac As]
+8.0 +5.8 86 +4 +4 по сезону 1012.3 943.9
ЮЗ 5 30 км {морось} 10/8 300 м
[Cu Sc Ac As Ci sp]
+8.4 +6.0 85 +5 +5 прохладно 1011.6 943.4 0.2
Ю 4 30 км 9/6 300 м
[Cu Sc Ac As Ci sp]
+7.9 +5.7 86 +5 +5 по сезону 1011.0 942.7
Ю 3 20 км слаб. морось 9/6 300 м
[Cu Sc Ac As Ci sp]
+8.1 +5.9 86 +6 +6 по сезону 1010.7 942.5
ЮЗ 7 9000 м слаб. дождь {морось} 10/9 200 м
[Cu Sc Ac As]
+8.2 +6.8 91 +4 +4 прохладно 1010.6 942.4 +8.8 0.8
ЮЗ 6 30 км слаб. морось {дождь} 10/4 600 м
[Cu Sc Ac As]
+8.6 +6.0 84 +5 +5 по сезону 1009.7 941.7
ЮЗ 5 30 км 9/3 1000 м
[Cu Sc Ac As Ci sp]
+8.4 +5.0 79 +5 +5 по сезону 1009.3 941.2
СЗ 2 30 км 9/3 1000 м
[Cu Sc Ac As Ci sp]
+8.0 +4.2 77 +6 +6 по сезону 1009.7 941.5 1
С 3 30 км 3/3 1000 м
[Cu hum]
+7.8 +4.0 77 +5 +5 по сезону 1010.0 941.7
С 3 30 км 3/3 1000 м
[Cu hum]
+6.3 +3.4 82 +4 +4 по сезону 1010.8 942.1
ЮВ 3 30 км 3/3 1000 м
[Cu hum]
+4.9 +3.1 88 +2 +2 по сезону 1011.6 942.5
СВ 2 20 км 3/3 1000 м
[Cu hum]
+3.9 +2.7 92 +1 +1 по сезону 1012.3 942.9
З 3 30 км 3/3 1500 м
[Cu hum]
+3.7 +2.8 94 -0 -0 по сезону 1012.2 942.7
штиль 0 30 км 3/3 1500 м
[Cu hum]
+3.0 +1.8 92 +2 +2 по сезону 1012.7 943.1
Ю 1 10 км 3/3 1500 м
[Cu hum]
+2.1 +1.2 94 0 0 по сезону 1013.7 943.8
З 3 20 км 1/1 1500 м
[Cu hum]
+2.4 +1.5 94 -2 -2 по сезону 1013.8 944.0
С 3 30 км ясно +4.1 +1.1 81 +1 +1 по сезону 1013.9 944.4 +2.0 2.0
С 4 30 км ясно +5.0 +0.6 73 +1 +1 по сезону 1014.3 945.0
ЮЗ 1 30 км ясно +4.5 +1.2 79 +3 +3 тепло 1015.0 945.5
С 3 30 км ясно +7.4 +1.8 68 +5 +6 по сезону 1015.1 946.3
С 5 30 км 1/1
[Cu hum]
+9.8 +1.6 57 +7 +8 тепло 1015.0 946.8
С 5 30 км 1/1 1000 м
[Cu hum Ac lent]
+10.9 +1.9 54 +9 +11 тепло 1015.0 947.1
С 6 30 км 4/4 1000 м
[Cu Sc]
+11.4 +1.2 49 +9 +10 по сезону 1014.5 946.7
С 6 30 км 3/3 1000 м
[Cu Sc]
+11.2 +1.1 50 +9 +10 тепло 1014.6 946.8
С 8 30 км 3/3 1000 м
[Sc]
+11.5 -0.6 43 +9 +9 тепло 1014.6 946.8
С 8 30 км 3/3 1500 м
[Sc]
+11.5 -0.6 43 +8 +9 по сезону 1015.0 947.2
С 6 30 км 4/4 1000 м
[Cu Sc]
+9.6 -0.4 50 +6 +7 по сезону 1016.0 947.7
С 4 30 км 3/3 1000 м
[Cu Sc]
+8.2 +0.1 57 +5 +5 по сезону 1016.8 948.1
С 4 30 км 3/3 1000 м
[Cu Sc]
+7.5 -0.3 58 +5 +5 по сезону 1017.4 948.5 +11.9
ЮВ 2 30 км ясно +5.7 -0.4 65 +4 +4 по сезону 1018.5 949.0
СВ 2 30 км ясно +4.9 -0.9 66 +3 +3 по сезону 1018.9 949.3
СВ 2 30 км ясно +4.9 -0.9 66 +3 +3 по сезону 1019.4 949.8
З 2 30 км ясно +3.6 -0.6 74 +1 +1 по сезону 1020.2 950.2
ЮВ 1 30 км ясно +2.0 -1.3 79 0 0 по сезону 1020.9 950.4
СВ 2 30 км ясно +1.2 -1.2 84 -2 -2 прохладно 1020.8 950.1
СЗ 2 30 км ясно +0.5 -1.7 85 -3 -3 прохладно 1020.7 949.8
С 2 30 км ясно -0.3 -1.9 89 -4 -4 по сезону 1020.9 949.8
Местоположение метеостанции Мадрид аэропорт (Испания): широта 40.45 долгота -3.55 высота над уровнем моря 582 м.
В архиве по умолчанию представлена погода в Мадрид аэропорту за последнюю неделю. Архивные данные за месяц целиком и за предыдущие месяцы, начиная с января 2011 года, Вы можете получить, выбрав интересующий диапазон дат из раскрывающегося списка и нажав кнопку "Найти!".
*Определитесь, кто Вы:
Внимание! Время в таблицах - всемирное. Для получения местного времени необходимо прибавить поправку, которая равна 1 ч.
Смотрите также архив погоды в соседних городах и на ближайших метеорологических станциях:
Партнеры нашего сайта:      
Пояснения к столбцам:
  • Ветер - указаны скорость ветра в м/с - средняя за 10 мин, порывы в срок и между сроками (в фигурных скобках) и направление, откуда дует ветер: С - северный,
  • СВ - северо-восточный, В - восточный, ЮВ - юго-восточный, Ю - южный, ЮЗ - юго-западный, З - западный, СЗ - северо-западный.
  • Видимость - горизонтальная дальность видимости в метрах или километрах. При видимости от 1 до 10 км при отсутствии осадков обычно наблюдается дымка, при ухудшении видимости до 1 км и менее - туман. В сухую погоду видимость может ухудшаться дымом, пылью или мглою.
  • Явления - указаны атмосферные явления, наблюдавшиеся в срок или в последний час перед сроком; фигурными скобками обозначены явления, наблюдавшиеся между сроками (за 1-3 часа до срока); квадратными скобками обозначены град или гололедные отложения с указанием их диаметра в мм.
  • Облачность - указаны через наклонную черту общая и нижняя облачность в баллах и высота нижней границы облаков в метрах; квадратными скобками обозначены формы облаков: Ci - перистые, Cs - перисто-слоистые, Cc - перисто-кучевые, Ac - высококучевые, As - высокослоистые, Sc - слоисто-кучевые, Ns - слоисто-дождевые, Cu - кучевые, Cb - кучево-дождевые. Подробнее классификацию облаков см. в Атласе облаков (PDF).
  • T - Температура воздуха - температура, измеренная на высоте 2 м над землей.
  • Td - Температура точки росы - температура, при понижении до которой содержащийся в воздухе водяной пар достигнет насыщения.
  • f - Относительная влажность воздуха - влажноcть воздуха, измеренная на высоте 2 м над землей.
  • Te - Эффективная температура - температура, которую ощущает одетый по сезону человек в тени. Характеристика душности погоды. При расчете учитывается влияние влажности воздуха и скорости ветра на теплоощущения человека.
  • Tes - Эффективная температура на солнце - температура, которую ощущает человек, с поправкой на солнечный нагрев. Характеристика знойности погоды. Зависит от высоты солнца над горизонтом, облачности и скорости ветра. Ночью, в пасмурную погоду, а также при ветре 12 м/с и более поправка равна нулю.
  • P - Атмосферное давление - приведенное к уровню моря атмосферное давление.
  • Po - Атмосферное давление - измеренное на уровне метеостанции атмосферное давление.
  • Tmin - Минимальная температура - минимум температуры воздуха на высоте 2 м над землей.
  • Tmax - Максимальная температура - максимум температуры воздуха на высоте 2 м над землей.
  • R - Количество осадков - Количество выпавших осадков за период времени, мм. При наведении курсора мыши на число - период времени, за который выпало указанное количество осадков.
  • R24 - Количество осадков - Количество выпавших осадков за 24 часа, мм.
  • S - Снежный покров - Высота снежного покрова, см. При наведении курсора мыши на число - состояние снежного покрова и степень покрытия местности в баллах.